Location: Unspecified
(0.0000°N, 0.0000°E)
Time: 17:59:37
(UTC+00:00)

CAPRICORN - Visible Passes

Search period start: 18 May 2026 00:00
Search period end: 28 May 2026 00:00
Orbit: 325 x 40040 km, 64.5° (Epoch: 16 April)

Date Brightness Start Highest point End Pass type
(mag) Time Alt. Az. Time Alt. Az. Time Alt. Az.
18 May ? 21:18:04 10° ESE 01:42:01 59° NE 03:32:51 10° NNE visible
19 May ? 21:13:25 10° ESE 01:37:50 59° NE 03:28:53 10° NNE visible
20 May ? 21:08:47 10° ESE 01:33:39 59° NE 03:24:56 10° NNE visible
21 May ? 21:04:08 10° ESE 01:29:28 59° NE 03:20:57 10° NNE visible
22 May ? 20:59:30 10° ESE 01:25:17 59° NE 03:17:00 10° NNE visible
23 May ? 20:54:51 10° ESE 01:21:06 60° NE 03:13:02 10° NNE visible
24 May ? 20:50:12 10° ESE 01:16:55 60° NE 03:09:04 10° NNE visible
25 May ? 20:45:34 10° ESE 01:12:44 60° NE 03:05:06 10° NNE visible
26 May ? 20:40:55 10° ESE 01:08:33 60° NE 03:01:08 10° NNE visible
